Time,TemperatureF,DewpointF,PressureIn,WindDirection,WindDirectionDegrees,WindSpeedMPH,WindSpeedGustMPH,Humidity,HourlyPrecipIn,Conditions,Clouds,dailyrainin,SoftwareType,DateUTC
2013-01-19 00:01:00,46.0,39.2,29.49,SW,225,1.7,1.7,77,0.00,,,0.00,VWS V14.00,2013-01-18 22:01:00,
2013-01-19 00:02:00,46.0,39.2,29.49,SW,225,1.7,1.7,77,0.00,,,0.00,VWS V14.00,2013-01-18 22:02:00,
2013-01-19 00:06:00,46.0,39.2,29.50,SSW,202,2.0,2.0,77,0.00,,,0.00,VWS V14.00,2013-01-18 22:06:00,
2013-01-19 00:07:00,46.0,39.2,29.50,SSW,202,2.0,2.0,77,0.00,,,0.00,VWS V14.00,2013-01-18 22:07:00,
2013-01-19 00:11:00,46.0,39.2,29.50,WSW,248,0.8,0.8,77,0.00,,,0.00,VWS V14.00,2013-01-18 22:11:00,
2013-01-19 00:12:00,46.0,39.2,29.50,SE,135,0.0,0.8,77,0.00,,,0.00,VWS V14.00,2013-01-18 22:12:00,
2013-01-19 00:16:00,45.6,38.8,29.50,SSW,202,2.9,2.9,77,0.00,,,0.00,VWS V14.00,2013-01-18 22:16:00,
2013-01-19 00:17:00,45.6,38.8,29.50,SSW,202,2.9,2.9,77,0.00,,,0.00,VWS V14.00,2013-01-18 22:17:00,
2013-01-19 00:21:00,45.6,38.8,29.49,SE,135,0.0,0.0,77,0.00,,,0.00,VWS V14.00,2013-01-18 22:21:00,
2013-01-19 00:22:00,45.6,38.8,29.49,SE,135,0.0,0.0,77,0.00,,,0.00,VWS V14.00,2013-01-18 22:22:00,
2013-01-19 00:26:00,45.6,38.8,29.49,SSE,158,0.0,2.9,77,0.00,,,0.00,VWS V14.00,2013-01-18 22:26:00,
2013-01-19 00:27:00,45.6,38.8,29.49,SSE,158,0.0,2.9,77,0.00,,,0.00,VWS V14.00,2013-01-18 22:27:00,
2013-01-19 00:31:00,45.6,39.2,29.49,South,180,0.0,0.0,78,0.00,,,0.00,VWS V14.00,2013-01-18 22:31:00,
2013-01-19 00:32:00,45.6,39.2,29.49,South,180,0.0,0.0,78,0.00,,,0.00,VWS V14.00,2013-01-18 22:32:00,
2013-01-19 00:36:00,45.6,39.2,29.50,SSW,202,2.4,2.4,78,0.00,,,0.00,VWS V14.00,2013-01-18 22:36:00,
2013-01-19 00:37:00,45.6,39.2,29.50,SW,225,6.2,6.2,78,0.00,,,0.00,VWS V14.00,2013-01-18 22:37:00,
2013-01-19 00:41:00,45.6,39.2,29.49,SW,225,4.6,5.5,78,0.00,,,0.00,VWS V14.00,2013-01-18 22:41:00,
2013-01-19 00:42:00,45.6,39.2,29.49,SW,225,4.6,5.5,78,0.00,,,0.00,VWS V14.00,2013-01-18 22:42:00,
2013-01-19 00:46:00,45.5,39.0,29.50,SSW,202,3.1,3.1,78,0.00,,,0.00,VWS V14.00,2013-01-18 22:46:00,
2013-01-19 00:47:00,45.5,39.0,29.50,SW,225,3.5,3.5,78,0.00,,,0.00,VWS V14.00,2013-01-18 22:47:00,
2013-01-19 00:52:00,45.5,39.0,29.49,SSW,202,2.0,2.0,78,0.00,,,0.00,VWS V14.00,2013-01-18 22:52:00,
2013-01-19 00:53:00,45.5,39.0,29.49,South,180,0.0,2.0,78,0.00,,,0.00,VWS V14.00,2013-01-18 22:53:00,
2013-01-19 00:57:00,45.5,38.7,29.50,SSW,202,3.5,3.5,77,0.00,,,0.00,VWS V14.00,2013-01-18 22:57:00,
2013-01-19 00:58:00,45.5,38.7,29.50,SSW,202,3.5,3.5,77,0.00,,,0.00,VWS V14.00,2013-01-18 22:58:00,
2013-01-19 01:02:00,45.5,38.7,29.50,South,180,2.4,2.4,77,0.00,,,0.00,VWS V14.00,2013-01-18 23:02:00,
2013-01-19 01:03:00,45.5,38.7,29.51,SSE,158,3.1,3.1,77,0.00,,,0.00,VWS V14.00,2013-01-18 23:03:00,
2013-01-19 01:07:00,45.5,38.7,29.51,SW,225,5.1,5.1,77,0.00,,,0.00,VWS V14.00,2013-01-18 23:07:00,
2013-01-19 01:08:00,45.3,38.5,29.51,SW,225,0.0,5.1,77,0.00,,,0.00,VWS V14.00,2013-01-18 23:08:00,
2013-01-19 01:12:00,45.3,38.5,29.51,South,180,10.2,10.2,77,0.00,,,0.00,VWS V14.00,2013-01-18 23:12:00,
2013-01-19 01:13:00,45.3,38.5,29.51,South,180,10.2,10.2,77,0.00,,,0.00,VWS V14.00,2013-01-18 23:13:00,
2013-01-19 01:17:00,45.5,38.7,29.52,SW,225,4.0,4.0,77,0.00,,,0.00,VWS V14.00,2013-01-18 23:17:00,
2013-01-19 01:18:00,45.5,38.7,29.52,SSE,158,6.7,6.7,77,0.00,,,0.00,VWS V14.00,2013-01-18 23:18:00,
2013-01-19 01:22:00,45.5,38.7,29.51,SW,225,0.0,1.5,77,0.00,,,0.00,VWS V14.00,2013-01-18 23:22:00,
2013-01-19 01:23:00,45.5,38.7,29.51,SW,225,0.0,1.5,77,0.00,,,0.00,VWS V14.00,2013-01-18 23:23:00,
2013-01-19 01:27:00,45.5,38.7,29.52,East,90,0.0,1.3,77,0.00,,,0.00,VWS V14.00,2013-01-18 23:27:00,
2013-01-19 01:28:00,45.5,38.7,29.52,East,90,0.0,1.3,77,0.00,,,0.00,VWS V14.00,2013-01-18 23:28:00,
2013-01-19 01:32:00,45.6,39.2,29.52,SW,225,3.8,3.8,78,0.00,,,0.00,VWS V14.00,2013-01-18 23:32:00,
2013-01-19 01:33:00,45.6,39.2,29.52,SW,225,3.8,3.8,78,0.00,,,0.00,VWS V14.00,2013-01-18 23:33:00,
2013-01-19 01:37:00,45.6,38.8,29.52,SSW,202,6.0,6.0,77,0.00,,,0.00,VWS V14.00,2013-01-18 23:37:00,
2013-01-19 01:38:00,45.6,38.8,29.52,SSW,202,6.0,6.0,77,0.00,,,0.00,VWS V14.00,2013-01-18 23:38:00,
2013-01-19 01:42:00,45.6,38.8,29.52,SSW,202,3.1,6.4,77,0.00,,,0.00,VWS V14.00,2013-01-18 23:42:00,
2013-01-19 01:43:00,45.6,38.8,29.52,SSW,202,3.1,6.4,77,0.00,,,0.00,VWS V14.00,2013-01-18 23:43:00,
2013-01-19 01:47:00,46.0,39.2,29.52,SW,225,2.2,4.6,77,0.00,,,0.00,VWS V14.00,2013-01-18 23:47:00,
2013-01-19 01:48:00,46.0,39.2,29.52,SW,225,2.2,4.6,77,0.00,,,0.00,VWS V14.00,2013-01-18 23:48:00,
2013-01-19 01:52:00,46.0,39.2,29.52,SW,225,6.9,6.9,77,0.00,,,0.00,VWS V14.00,2013-01-18 23:52:00,
2013-01-19 01:53:00,46.0,39.2,29.52,SW,225,6.9,6.9,77,0.00,,,0.00,VWS V14.00,2013-01-18 23:53:00,
2013-01-19 01:58:00,46.0,39.2,29.51,South,180,0.8,0.8,77,0.00,,,0.00,VWS V14.00,2013-01-18 23:58:00,
2013-01-19 02:03:00,46.0,39.2,29.51,WSW,248,2.9,2.9,77,0.00,,,0.00,VWS V14.00,2013-01-19 00:03:00,
2013-01-19 02:04:00,46.0,39.2,29.51,SSW,202,1.1,2.9,77,0.00,,,0.00,VWS V14.00,2013-01-19 00:04:00,
2013-01-19 02:08:00,46.0,38.9,29.51,SW,225,1.3,10.0,76,0.00,,,0.00,VWS V14.00,2013-01-19 00:08:00,
2013-01-19 02:09:00,46.0,38.9,29.51,SW,225,1.3,10.0,76,0.00,,,0.00,VWS V14.00,2013-01-19 00:09:00,
2013-01-19 02:13:00,46.0,38.9,29.51,SW,225,2.2,4.4,76,0.00,,,0.00,VWS V14.00,2013-01-19 00:13:00,
2013-01-19 02:14:00,46.0,38.9,29.51,SSW,202,3.8,4.4,76,0.00,,,0.00,VWS V14.00,2013-01-19 00:14:00,
2013-01-19 02:18:00,46.0,38.9,29.51,SSW,202,13.1,13.1,76,0.00,,,0.00,VWS V14.00,2013-01-19 00:18:00,
2013-01-19 02:19:00,46.0,38.9,29.52,SSW,202,13.1,13.1,76,0.00,,,0.00,VWS V14.00,2013-01-19 00:19:00,
2013-01-19 02:23:00,46.2,39.1,29.52,West,270,4.2,4.4,76,0.00,,,0.00,VWS V14.00,2013-01-19 00:23:00,
2013-01-19 02:24:00,46.2,39.1,29.52,WSW,248,2.2,4.4,76,0.00,,,0.00,VWS V14.00,2013-01-19 00:24:00,
2013-01-19 02:28:00,46.2,39.1,29.52,SW,225,4.6,4.6,76,0.00,,,0.00,VWS V14.00,2013-01-19 00:28:00,
2013-01-19 02:29:00,46.2,39.1,29.52,SW,225,4.0,4.6,76,0.00,,,0.00,VWS V14.00,2013-01-19 00:29:00,
2013-01-19 02:33:00,46.2,39.1,29.52,WNW,292,1.7,2.0,76,0.00,,,0.00,VWS V14.00,2013-01-19 00:33:00,
2013-01-19 02:34:00,46.2,39.1,29.53,SSW,202,2.4,2.4,76,0.00,,,0.00,VWS V14.00,2013-01-19 00:34:00,
2013-01-19 02:38:00,46.2,39.1,29.53,SSW,202,0.6,2.4,76,0.00,,,0.00,VWS V14.00,2013-01-19 00:38:00,
2013-01-19 02:39:00,46.2,39.1,29.53,SE,135,2.9,2.9,76,0.00,,,0.00,VWS V14.00,2013-01-19 00:39:00,
2013-01-19 02:43:00,46.2,39.1,29.53,SW,225,3.8,3.8,76,0.00,,,0.00,VWS V14.00,2013-01-19 00:43:00,
2013-01-19 02:44:00,46.2,39.1,29.53,WSW,248,4.4,4.4,76,0.00,,,0.00,VWS V14.00,2013-01-19 00:44:00,
2013-01-19 02:48:00,46.2,39.1,29.54,SE,135,0.8,3.1,76,0.00,,,0.00,VWS V14.00,2013-01-19 00:48:00,
2013-01-19 02:49:00,46.2,39.1,29.54,SE,135,0.8,3.1,76,0.00,,,0.00,VWS V14.00,2013-01-19 00:49:00,
2013-01-19 02:53:00,46.2,39.1,29.54,SW,225,1.3,4.4,76,0.00,,,0.00,VWS V14.00,2013-01-19 00:53:00,
2013-01-19 02:54:00,46.2,39.1,29.54,SW,225,1.3,4.4,76,0.00,,,0.00,VWS V14.00,2013-01-19 00:54:00,
2013-01-19 02:55:00,46.2,39.1,29.54,SSW,202,5.5,5.5,76,0.00,,,0.00,VWS V14.00,2013-01-19 00:55:00,
2013-01-19 02:58:00,46.2,39.1,29.54,South,180,1.5,5.5,76,0.00,,,0.00,VWS V14.00,2013-01-19 00:58:00,
2013-01-19 02:59:00,46.2,39.1,29.54,South,180,1.5,5.5,76,0.00,,,0.00,VWS V14.00,2013-01-19 00:59:00,
2013-01-19 03:00:00,46.2,39.1,29.54,South,180,1.5,5.5,76,0.00,,,0.00,VWS V14.00,2013-01-19 01:00:00,
2013-01-19 03:03:00,46.2,38.7,29.54,SSW,202,3.5,12.0,75,0.00,,,0.00,VWS V14.00,2013-01-19 01:03:00,
2013-01-19 03:04:00,46.2,38.7,29.54,SSW,202,3.5,12.0,75,0.00,,,0.00,VWS V14.00,2013-01-19 01:04:00,
2013-01-19 03:05:00,46.2,38.7,29.54,SSW,202,5.8,12.0,75,0.00,,,0.00,VWS V14.00,2013-01-19 01:05:00,
2013-01-19 03:09:00,46.2,38.7,29.53,SE,135,0.0,5.8,75,0.00,,,0.00,VWS V14.00,2013-01-19 01:09:00,
2013-01-19 03:10:00,46.2,38.7,29.54,SW,225,6.2,6.2,75,0.00,,,0.00,VWS V14.00,2013-01-19 01:10:00,
2013-01-19 03:14:00,46.2,38.7,29.54,SW,225,8.2,8.2,75,0.00,,,0.00,VWS V14.00,2013-01-19 01:14:00,
2013-01-19 03:15:00,46.2,38.7,29.54,SSW,202,1.5,1.5,75,0.00,,,0.00,VWS V14.00,2013-01-19 01:15:00,
2013-01-19 03:19:00,46.2,38.7,29.54,West,270,0.6,1.5,75,0.00,,,0.00,VWS V14.00,2013-01-19 01:19:00,
2013-01-19 03:20:00,46.2,38.7,29.54,West,270,1.7,1.7,75,0.00,,,0.00,VWS V14.00,2013-01-19 01:20:00,
2013-01-19 03:24:00,46.2,38.7,29.54,WSW,248,0.6,1.7,75,0.00,,,0.00,VWS V14.00,2013-01-19 01:24:00,
2013-01-19 03:25:00,46.2,38.7,29.53,SW,225,3.5,3.5,75,0.00,,,0.00,VWS V14.00,2013-01-19 01:25:00,
2013-01-19 03:29:00,46.2,38.7,29.53,SW,225,3.3,3.5,75,0.00,,,0.00,VWS V14.00,2013-01-19 01:29:00,
2013-01-19 03:30:00,46.2,38.7,29.53,SSW,202,0.0,0.0,75,0.00,,,0.00,VWS V14.00,2013-01-19 01:30:00,
2013-01-19 03:34:00,46.2,38.7,29.52,SSW,202,0.8,2.2,75,0.00,,,0.00,VWS V14.00,2013-01-19 01:34:00,
2013-01-19 03:35:00,46.2,38.7,29.53,SSW,202,0.8,0.8,75,0.00,,,0.00,VWS V14.00,2013-01-19 01:35:00,
2013-01-19 03:39:00,46.2,38.7,29.52,SW,225,2.0,2.0,75,0.00,,,0.00,VWS V14.00,2013-01-19 01:39:00,
2013-01-19 03:40:00,46.2,38.7,29.52,SW,225,2.0,2.0,75,0.00,,,0.00,VWS V14.00,2013-01-19 01:40:00,
2013-01-19 03:44:00,46.2,38.7,29.52,West,270,0.0,4.6,75,0.00,,,0.00,VWS V14.00,2013-01-19 01:44:00,
2013-01-19 03:45:00,46.2,38.7,29.52,SW,225,1.1,1.1,75,0.00,,,0.00,VWS V14.00,2013-01-19 01:45:00,
2013-01-19 03:49:00,46.2,38.7,29.52,West,270,0.0,2.0,75,0.00,,,0.00,VWS V14.00,2013-01-19 01:49:00,
2013-01-19 03:50:00,46.2,38.7,29.52,West,270,0.0,0.0,75,0.00,,,0.00,VWS V14.00,2013-01-19 01:50:00,
2013-01-19 03:54:00,46.2,38.7,29.53,WSW,248,0.0,0.0,75,0.00,,,0.00,VWS V14.00,2013-01-19 01:54:00,
2013-01-19 03:55:00,46.2,38.7,29.53,WSW,248,0.0,0.0,75,0.00,,,0.00,VWS V14.00,2013-01-19 01:55:00,
2013-01-19 03:59:00,46.2,38.7,29.53,NW,315,0.0,0.0,75,0.00,,,0.00,VWS V14.00,2013-01-19 01:59:00,
2013-01-19 04:00:00,46.2,38.7,29.53,NW,315,0.0,0.0,75,0.00,,,0.00,VWS V14.00,2013-01-19 02:00:00,
2013-01-19 04:04:00,46.0,38.5,29.53,West,270,0.0,0.0,75,0.00,,,0.00,VWS V14.00,2013-01-19 02:04:00,
2013-01-19 04:05:00,46.0,38.5,29.53,West,270,0.0,0.0,75,0.00,,,0.00,VWS V14.00,2013-01-19 02:05:00,
2013-01-19 04:09:00,46.0,38.5,29.53,WSW,248,0.0,0.0,75,0.00,,,0.00,VWS V14.00,2013-01-19 02:09:00,
2013-01-19 04:10:00,46.0,38.5,29.53,WSW,248,0.0,0.0,75,0.00,,,0.00,VWS V14.00,2013-01-19 02:10:00,
2013-01-19 04:14:00,46.0,38.5,29.53,South,180,0.0,0.0,75,0.00,,,0.00,VWS V14.00,2013-01-19 02:14:00,
2013-01-19 04:15:00,46.0,38.5,29.53,South,180,0.0,0.0,75,0.00,,,0.00,VWS V14.00,2013-01-19 02:15:00,
2013-01-19 04:19:00,45.8,38.3,29.52,WSW,248,0.0,0.0,75,0.00,,,0.00,VWS V14.00,2013-01-19 02:19:00,
2013-01-19 04:20:00,45.8,38.3,29.52,WSW,248,0.0,0.0,75,0.00,,,0.00,VWS V14.00,2013-01-19 02:20:00,
2013-01-19 04:24:00,45.6,38.2,29.53,West,270,0.0,0.0,75,0.00,,,0.00,VWS V14.00,2013-01-19 02:24:00,
2013-01-19 04:25:00,45.6,38.2,29.53,West,270,0.0,0.0,75,0.00,,,0.00,VWS V14.00,2013-01-19 02:25:00,
2013-01-19 04:29:00,45.6,38.2,29.53,WSW,248,0.0,0.0,75,0.00,,,0.00,VWS V14.00,2013-01-19 02:29:00,
2013-01-19 04:30:00,45.6,38.2,29.53,WSW,248,0.0,0.0,75,0.00,,,0.00,VWS V14.00,2013-01-19 02:30:00,
2013-01-19 04:34:00,45.5,38.0,29.53,WSW,248,0.0,0.0,75,0.00,,,0.00,VWS V14.00,2013-01-19 02:34:00,
2013-01-19 04:35:00,45.5,38.0,29.54,WSW,248,0.0,0.0,75,0.00,,,0.00,VWS V14.00,2013-01-19 02:35:00,
2013-01-19 04:39:00,45.3,37.9,29.54,West,270,0.0,0.0,75,0.00,,,0.00,VWS V14.00,2013-01-19 02:39:00,
2013-01-19 04:40:00,45.3,37.9,29.54,West,270,0.0,0.0,75,0.00,,,0.00,VWS V14.00,2013-01-19 02:40:00,
2013-01-19 04:44:00,45.3,37.9,29.54,West,270,0.0,0.0,75,0.00,,,0.00,VWS V14.00,2013-01-19 02:44:00,
2013-01-19 04:45:00,45.3,38.2,29.53,West,270,0.0,0.0,76,0.00,,,0.00,VWS V14.00,2013-01-19 02:45:00,
2013-01-19 04:46:00,45.3,38.2,29.53,West,270,0.0,0.0,76,0.00,,,0.00,VWS V14.00,2013-01-19 02:46:00,
2013-01-19 04:49:00,45.1,38.0,29.53,SW,225,0.0,0.0,76,0.00,,,0.00,VWS V14.00,2013-01-19 02:49:00,
2013-01-19 04:50:00,45.1,38.0,29.53,SW,225,0.0,0.0,76,0.00,,,0.00,VWS V14.00,2013-01-19 02:50:00,
2013-01-19 04:51:00,45.1,38.0,29.53,SW,225,0.0,0.0,76,0.00,,,0.00,VWS V14.00,2013-01-19 02:51:00,
2013-01-19 04:54:00,45.1,38.0,29.53,SW,225,0.0,0.0,76,0.00,,,0.00,VWS V14.00,2013-01-19 02:54:00,
2013-01-19 04:55:00,45.1,38.0,29.53,SW,225,0.0,0.0,76,0.00,,,0.00,VWS V14.00,2013-01-19 02:55:00,
2013-01-19 04:56:00,45.1,38.0,29.53,SW,225,0.0,0.0,76,0.00,,,0.00,VWS V14.00,2013-01-19 02:56:00,
2013-01-19 04:59:00,44.9,37.8,29.53,NNW,338,0.0,0.0,76,0.00,,,0.00,VWS V14.00,2013-01-19 02:59:00,
2013-01-19 05:00:00,44.9,37.8,29.53,NNW,338,0.0,0.0,76,0.00,,,0.00,VWS V14.00,2013-01-19 03:00:00,
2013-01-19 05:01:00,44.9,37.8,29.54,NNW,338,0.0,0.0,76,0.00,,,0.00,VWS V14.00,2013-01-19 03:01:00,
2013-01-19 05:05:00,44.9,38.1,29.54,WNW,292,0.0,0.8,77,0.00,,,0.00,VWS V14.00,2013-01-19 03:05:00,
2013-01-19 05:06:00,44.9,38.1,29.54,WNW,292,0.0,0.0,77,0.00,,,0.00,VWS V14.00,2013-01-19 03:06:00,
2013-01-19 05:10:00,44.7,37.9,29.54,NW,315,0.0,0.0,77,0.00,,,0.00,VWS V14.00,2013-01-19 03:10:00,
2013-01-19 05:11:00,44.7,37.9,29.54,NW,315,0.0,0.0,77,0.00,,,0.00,VWS V14.00,2013-01-19 03:11:00,
2013-01-19 05:12:00,44.7,37.9,29.54,NW,315,0.0,0.0,77,0.00,,,0.00,VWS V14.00,2013-01-19 03:12:00,
2013-01-19 05:15:00,44.7,37.9,29.54,North,0,0.0,0.0,77,0.00,,,0.00,VWS V14.00,2013-01-19 03:15:00,
2013-01-19 05:16:00,44.7,37.9,29.54,North,0,0.0,0.0,77,0.00,,,0.00,VWS V14.00,2013-01-19 03:16:00,
2013-01-19 05:17:00,44.7,37.9,29.54,North,0,0.0,0.0,77,0.00,,,0.00,VWS V14.00,2013-01-19 03:17:00,
2013-01-19 05:20:00,44.6,37.8,29.54,NW,315,0.0,0.0,77,0.00,,,0.00,VWS V14.00,2013-01-19 03:20:00,
2013-01-19 05:21:00,44.6,37.8,29.54,NW,315,0.0,0.0,77,0.00,,,0.00,VWS V14.00,2013-01-19 03:21:00,
2013-01-19 05:22:00,44.6,37.8,29.54,NW,315,0.0,0.0,77,0.00,,,0.00,VWS V14.00,2013-01-19 03:22:00,
2013-01-19 05:25:00,44.6,37.8,29.54,NNW,338,0.0,0.0,77,0.00,,,0.00,VWS V14.00,2013-01-19 03:25:00,
2013-01-19 05:26:00,44.6,37.8,29.54,NNW,338,0.0,0.0,77,0.00,,,0.00,VWS V14.00,2013-01-19 03:26:00,
2013-01-19 05:27:00,44.6,37.8,29.54,NNW,338,0.0,0.0,77,0.00,,,0.00,VWS V14.00,2013-01-19 03:27:00,
2013-01-19 05:30:00,44.4,37.7,29.53,East,90,0.0,0.0,77,0.00,,,0.00,VWS V14.00,2013-01-19 03:30:00,
2013-01-19 05:31:00,44.4,37.7,29.53,East,90,0.0,0.0,77,0.00,,,0.00,VWS V14.00,2013-01-19 03:31:00,
2013-01-19 05:32:00,44.4,37.7,29.53,East,90,0.0,0.0,77,0.00,,,0.00,VWS V14.00,2013-01-19 03:32:00,
2013-01-19 05:35:00,44.4,38.0,29.53,ESE,112,0.0,0.0,78,0.00,,,0.00,VWS V14.00,2013-01-19 03:35:00,
2013-01-19 05:36:00,44.4,38.0,29.54,ESE,112,0.0,0.0,78,0.00,,,0.00,VWS V14.00,2013-01-19 03:36:00,
2013-01-19 05:37:00,44.4,38.0,29.54,ESE,112,0.0,0.0,78,0.00,,,0.00,VWS V14.00,2013-01-19 03:37:00,
2013-01-19 05:40:00,44.4,38.0,29.54,East,90,0.0,0.0,78,0.00,,,0.00,VWS V14.00,2013-01-19 03:40:00,
2013-01-19 05:41:00,44.4,38.0,29.54,East,90,0.0,0.0,78,0.00,,,0.00,VWS V14.00,2013-01-19 03:41:00,
2013-01-19 05:42:00,44.4,38.0,29.54,East,90,0.0,0.0,78,0.00,,,0.00,VWS V14.00,2013-01-19 03:42:00,
2013-01-19 05:45:00,44.4,38.0,29.54,ENE,68,0.0,0.0,78,0.00,,,0.00,VWS V14.00,2013-01-19 03:45:00,
2013-01-19 05:46:00,44.4,38.0,29.54,ENE,68,0.0,0.0,78,0.00,,,0.00,VWS V14.00,2013-01-19 03:46:00,
2013-01-19 05:47:00,44.4,38.0,29.54,ENE,68,0.0,0.0,78,0.00,,,0.00,VWS V14.00,2013-01-19 03:47:00,
2013-01-19 05:50:00,44.4,38.0,29.54,ENE,68,0.0,0.0,78,0.00,,,0.00,VWS V14.00,2013-01-19 03:50:00,
2013-01-19 05:52:00,44.4,38.0,29.54,ENE,68,0.0,0.0,78,0.00,,,0.00,VWS V14.00,2013-01-19 03:52:00,
2013-01-19 05:55:00,44.4,38.3,29.55,NW,315,0.8,0.8,79,0.00,,,0.00,VWS V14.00,2013-01-19 03:55:00,
2013-01-19 05:57:00,44.4,38.3,29.55,WNW,292,2.4,2.4,79,0.00,,,0.00,VWS V14.00,2013-01-19 03:57:00,
2013-01-19 06:00:00,44.2,38.1,29.55,WNW,292,0.0,0.0,79,0.00,,,0.00,VWS V14.00,2013-01-19 04:00:00,
2013-01-19 06:02:00,44.2,38.1,29.54,WNW,292,0.0,0.0,79,0.00,,,0.00,VWS V14.00,2013-01-19 04:02:00,
2013-01-19 06:05:00,44.2,38.1,29.54,NW,315,0.0,0.0,79,0.00,,,0.00,VWS V14.00,2013-01-19 04:05:00,
2013-01-19 06:07:00,44.0,37.6,29.54,NW,315,0.0,0.0,78,0.00,,,0.00,VWS V14.00,2013-01-19 04:07:00,
2013-01-19 06:10:00,44.0,37.6,29.54,NW,315,0.0,0.0,78,0.00,,,0.00,VWS V14.00,2013-01-19 04:10:00,
2013-01-19 06:12:00,44.0,37.6,29.54,NW,315,0.0,0.0,78,0.00,,,0.00,VWS V14.00,2013-01-19 04:12:00,
2013-01-19 06:15:00,44.0,37.9,29.54,NNW,338,0.0,0.0,79,0.00,,,0.00,VWS V14.00,2013-01-19 04:15:00,
2013-01-19 06:17:00,44.0,37.9,29.55,ENE,68,0.0,0.0,79,0.00,,,0.00,VWS V14.00,2013-01-19 04:17:00,
2013-01-19 06:20:00,43.8,37.7,29.55,ESE,112,1.3,1.3,79,0.00,,,0.00,VWS V14.00,2013-01-19 04:20:00,
2013-01-19 06:22:00,43.8,37.7,29.55,ESE,112,0.0,1.3,79,0.00,,,0.00,VWS V14.00,2013-01-19 04:22:00,
2013-01-19 06:25:00,43.8,37.7,29.55,ESE,112,0.0,0.0,79,0.00,,,0.00,VWS V14.00,2013-01-19 04:25:00,
2013-01-19 06:27:00,43.8,37.7,29.56,ESE,112,0.0,0.0,79,0.00,,,0.00,VWS V14.00,2013-01-19 04:27:00,
2013-01-19 06:30:00,43.8,37.7,29.56,NW,315,0.0,0.0,79,0.00,,,0.00,VWS V14.00,2013-01-19 04:30:00,
2013-01-19 06:32:00,43.8,37.7,29.55,NNW,338,0.0,0.0,79,0.00,,,0.00,VWS V14.00,2013-01-19 04:32:00,
2013-01-19 06:35:00,43.8,37.7,29.55,WNW,292,0.8,0.8,79,0.00,,,0.00,VWS V14.00,2013-01-19 04:35:00,
2013-01-19 06:37:00,43.8,37.7,29.56,WNW,292,0.0,0.8,79,0.00,,,0.00,VWS V14.00,2013-01-19 04:37:00,
2013-01-19 06:41:00,43.8,37.7,29.55,NW,315,0.0,0.0,79,0.00,,,0.00,VWS V14.00,2013-01-19 04:41:00,
2013-01-19 06:42:00,43.8,37.7,29.55,WNW,292,1.3,1.3,79,0.00,,,0.00,VWS V14.00,2013-01-19 04:42:00,
2013-01-19 06:46:00,43.8,38.0,29.56,NNW,338,0.0,0.0,80,0.00,,,0.00,VWS V14.00,2013-01-19 04:46:00,
2013-01-19 06:47:00,43.8,38.0,29.56,NNW,338,0.0,0.0,80,0.00,,,0.00,VWS V14.00,2013-01-19 04:47:00,
2013-01-19 06:51:00,43.8,38.0,29.56,ENE,68,0.0,0.0,80,0.00,,,0.00,VWS V14.00,2013-01-19 04:51:00,
2013-01-19 06:52:00,43.8,38.0,29.56,ENE,68,0.0,0.0,80,0.00,,,0.00,VWS V14.00,2013-01-19 04:52:00,
2013-01-19 06:56:00,43.8,38.0,29.57,WNW,292,0.0,0.0,80,0.00,,,0.00,VWS V14.00,2013-01-19 04:56:00,
2013-01-19 06:57:00,43.8,38.0,29.57,WNW,292,0.0,0.0,80,0.00,,,0.00,VWS V14.00,2013-01-19 04:57:00,
2013-01-19 06:58:00,43.8,38.0,29.57,WNW,292,0.0,0.0,80,0.00,,,0.00,VWS V14.00,2013-01-19 04:58:00,
2013-01-19 07:00:00,43.8,38.0,29.57,WNW,292,0.0,0.0,80,0.00,,,0.00,VWS V14.00,2013-01-19 05:00:00,
2013-01-19 07:01:00,43.8,38.0,29.57,WNW,292,0.0,0.0,80,0.00,,,0.00,VWS V14.00,2013-01-19 05:01:00,
2013-01-19 07:02:00,43.8,38.0,29.57,WNW,292,0.0,0.0,80,0.00,,,0.00,VWS V14.00,2013-01-19 05:02:00,
2013-01-19 07:05:00,43.8,38.0,29.57,WNW,292,0.8,0.8,80,0.00,,,0.00,VWS V14.00,2013-01-19 05:05:00,
2013-01-19 07:06:00,43.8,38.0,29.57,WNW,292,0.8,0.8,80,0.00,,,0.00,VWS V14.00,2013-01-19 05:06:00,
2013-01-19 07:07:00,43.8,38.0,29.57,WNW,292,0.8,0.8,80,0.00,,,0.00,VWS V14.00,2013-01-19 05:07:00,
2013-01-19 07:10:00,43.8,38.0,29.58,WNW,292,0.0,0.0,80,0.00,,,0.00,VWS V14.00,2013-01-19 05:10:00,
2013-01-19 07:11:00,43.8,38.0,29.58,NNW,338,0.0,0.0,80,0.00,,,0.00,VWS V14.00,2013-01-19 05:11:00,
2013-01-19 07:12:00,43.8,38.0,29.58,NNW,338,0.0,0.0,80,0.00,,,0.00,VWS V14.00,2013-01-19 05:12:00,
2013-01-19 07:15:00,43.8,38.0,29.58,NNW,338,0.0,0.0,80,0.00,,,0.00,VWS V14.00,2013-01-19 05:15:00,
2013-01-19 07:16:00,43.8,38.0,29.58,NNW,338,0.0,0.0,80,0.00,,,0.00,VWS V14.00,2013-01-19 05:16:00,
2013-01-19 07:17:00,43.8,38.0,29.58,North,0,0.0,0.0,80,0.00,,,0.00,VWS V14.00,2013-01-19 05:17:00,
2013-01-19 07:20:00,43.8,38.0,29.58,NNE,22,0.0,0.0,80,0.00,,,0.00,VWS V14.00,2013-01-19 05:20:00,
2013-01-19 07:21:00,43.8,38.0,29.58,NW,315,0.0,0.0,80,0.00,,,0.00,VWS V14.00,2013-01-19 05:21:00,
2013-01-19 07:22:00,43.8,38.0,29.58,NW,315,0.0,0.0,80,0.00,,,0.00,VWS V14.00,2013-01-19 05:22:00,
2013-01-19 07:25:00,43.7,38.0,29.58,NNE,22,0.0,0.0,80,0.00,,,0.00,VWS V14.00,2013-01-19 05:25:00,
2013-01-19 07:26:00,43.7,38.0,29.58,NNE,22,0.0,0.0,80,0.00,,,0.00,VWS V14.00,2013-01-19 05:26:00,
2013-01-19 07:27:00,43.7,38.0,29.58,NNE,22,0.0,0.0,80,0.00,,,0.00,VWS V14.00,2013-01-19 05:27:00,
2013-01-19 07:30:00,43.7,38.0,29.58,NW,315,0.0,0.0,80,0.00,,,0.00,VWS V14.00,2013-01-19 05:30:00,
2013-01-19 07:31:00,43.7,38.0,29.58,NW,315,0.0,0.0,80,0.00,,,0.00,VWS V14.00,2013-01-19 05:31:00,
2013-01-19 07:32:00,43.7,38.0,29.58,NW,315,0.0,0.0,80,0.00,,,0.00,VWS V14.00,2013-01-19 05:32:00,
2013-01-19 07:35:00,43.7,38.0,29.59,NW,315,0.0,0.0,80,0.00,,,0.00,VWS V14.00,2013-01-19 05:35:00,
2013-01-19 07:36:00,43.5,37.8,29.59,NW,315,0.0,0.0,80,0.00,,,0.00,VWS V14.00,2013-01-19 05:36:00,
2013-01-19 07:37:00,43.5,37.8,29.59,NW,315,0.0,0.0,80,0.00,,,0.00,VWS V14.00,2013-01-19 05:37:00,
2013-01-19 07:40:00,43.7,38.0,29.59,NW,315,0.0,0.0,80,0.00,,,0.00,VWS V14.00,2013-01-19 05:40:00,
2013-01-19 07:42:00,43.5,37.8,29.59,NW,315,0.0,0.0,80,0.00,,,0.00,VWS V14.00,2013-01-19 05:42:00,
2013-01-19 07:43:00,43.5,37.8,29.59,NW,315,0.0,0.0,80,0.00,,,0.00,VWS V14.00,2013-01-19 05:43:00,
2013-01-19 07:45:00,43.7,38.3,29.59,WNW,292,0.0,0.0,81,0.00,,,0.00,VWS V14.00,2013-01-19 05:45:00,
2013-01-19 07:47:00,43.7,38.3,29.59,WNW,292,0.0,0.0,81,0.00,,,0.00,VWS V14.00,2013-01-19 05:47:00,
2013-01-19 07:48:00,43.8,38.7,29.59,WNW,292,0.0,0.0,82,0.00,,,0.00,VWS V14.00,2013-01-19 05:48:00,
2013-01-19 07:50:00,44.0,38.5,29.59,WSW,248,0.0,0.0,81,0.00,,,0.00,VWS V14.00,2013-01-19 05:50:00,
2013-01-19 07:52:00,44.0,38.5,29.59,WSW,248,0.0,0.0,81,0.00,,,0.00,VWS V14.00,2013-01-19 05:52:00,
2013-01-19 07:53:00,44.4,38.9,29.59,WSW,248,0.6,0.6,81,0.00,,,0.00,VWS V14.00,2013-01-19 05:53:00,
2013-01-19 07:56:00,44.4,38.9,29.60,WNW,292,0.0,0.0,81,0.00,,,0.00,VWS V14.00,2013-01-19 05:56:00,
2013-01-19 07:57:00,44.4,38.9,29.60,WSW,248,1.3,1.3,81,0.00,,,0.00,VWS V14.00,2013-01-19 05:57:00,
2013-01-19 07:58:00,44.4,38.9,29.60,WSW,248,1.3,1.3,81,0.00,,,0.00,VWS V14.00,2013-01-19 05:58:00,
2013-01-19 08:01:00,44.7,39.2,29.60,SSW,202,0.0,0.0,81,0.00,,,0.00,VWS V14.00,2013-01-19 06:01:00,
2013-01-19 08:02:00,44.9,39.4,29.60,SSW,202,0.0,0.0,81,0.00,,,0.00,VWS V14.00,2013-01-19 06:02:00,
2013-01-19 08:03:00,44.9,39.4,29.60,SSW,202,0.0,0.0,81,0.00,,,0.00,VWS V14.00,2013-01-19 06:03:00,
2013-01-19 08:06:00,44.9,39.4,29.60,SSW,202,0.0,0.0,81,0.00,,,0.00,VWS V14.00,2013-01-19 06:06:00,
2013-01-19 08:07:00,45.1,39.6,29.60,SSW,202,3.1,3.1,81,0.00,,,0.00,VWS V14.00,2013-01-19 06:07:00,
2013-01-19 08:08:00,45.1,39.6,29.60,SSW,202,3.1,3.1,81,0.00,,,0.00,VWS V14.00,2013-01-19 06:08:00,
2013-01-19 08:11:00,45.1,39.3,29.61,SW,225,1.1,1.1,80,0.00,,,0.00,VWS V14.00,2013-01-19 06:11:00,
2013-01-19 08:12:00,45.1,39.3,29.61,SW,225,1.1,1.1,80,0.00,,,0.00,VWS V14.00,2013-01-19 06:12:00,
2013-01-19 08:13:00,45.1,39.3,29.61,SW,225,1.1,1.1,80,0.00,,,0.00,VWS V14.00,2013-01-19 06:13:00,
2013-01-19 08:16:00,45.3,39.5,29.61,NNW,338,3.1,3.1,80,0.00,,,0.00,VWS V14.00,2013-01-19 06:16:00,
2013-01-19 08:17:00,45.3,39.2,29.61,SW,225,3.8,3.8,79,0.00,,,0.00,VWS V14.00,2013-01-19 06:17:00,
2013-01-19 08:18:00,45.3,39.2,29.61,SW,225,3.8,3.8,79,0.00,,,0.00,VWS V14.00,2013-01-19 06:18:00,
2013-01-19 08:21:00,45.5,39.4,29.61,West,270,1.5,3.1,79,0.00,,,0.00,VWS V14.00,2013-01-19 06:21:00,
2013-01-19 08:22:00,45.6,39.5,29.60,West,270,1.5,3.1,79,0.00,,,0.00,VWS V14.00,2013-01-19 06:22:00,
2013-01-19 08:23:00,45.6,39.5,29.60,West,270,1.5,3.1,79,0.00,,,0.00,VWS V14.00,2013-01-19 06:23:00,
2013-01-19 08:26:00,46.0,39.9,29.61,South,180,0.0,8.9,79,0.00,,,0.00,VWS V14.00,2013-01-19 06:26:00,
2013-01-19 08:27:00,46.0,39.9,29.60,South,180,0.0,8.9,79,0.00,,,0.00,VWS V14.00,2013-01-19 06:27:00,
2013-01-19 08:28:00,46.0,39.9,29.60,South,180,0.0,8.9,79,0.00,,,0.00,VWS V14.00,2013-01-19 06:28:00,
2013-01-19 08:31:00,46.0,39.9,29.61,SSW,202,2.4,2.4,79,0.00,,,0.00,VWS V14.00,2013-01-19 06:31:00,
2013-01-19 08:32:00,46.2,39.7,29.61,SSW,202,2.9,2.9,78,0.00,,,0.00,VWS V14.00,2013-01-19 06:32:00,
2013-01-19 08:33:00,46.2,39.7,29.61,SSW,202,2.9,2.9,78,0.00,,,0.00,VWS V14.00,2013-01-19 06:33:00,
2013-01-19 08:36:00,46.2,39.7,29.61,SSW,202,1.3,1.3,78,0.00,,,0.00,VWS V14.00,2013-01-19 06:36:00,
2013-01-19 08:38:00,46.2,39.7,29.61,SSW,202,1.3,1.3,78,0.00,,,0.00,VWS V14.00,2013-01-19 06:38:00,
2013-01-19 08:41:00,46.2,39.7,29.61,SSW,202,5.3,5.3,78,0.00,,,0.00,VWS V14.00,2013-01-19 06:41:00,
2013-01-19 08:43:00,46.2,39.7,29.61,SSW,202,5.3,5.3,78,0.00,,,0.00,VWS V14.00,2013-01-19 06:43:00,
2013-01-19 08:46:00,46.2,39.7,29.62,West,270,0.8,0.8,78,0.00,,,0.00,VWS V14.00,2013-01-19 06:46:00,
2013-01-19 08:48:00,46.2,39.7,29.62,NNW,338,0.0,0.8,78,0.00,,,0.00,VWS V14.00,2013-01-19 06:48:00,
2013-01-19 08:51:00,46.2,39.7,29.62,West,270,0.0,2.4,78,0.00,,,0.00,VWS V14.00,2013-01-19 06:51:00,
2013-01-19 08:53:00,46.2,39.7,29.62,West,270,0.0,2.4,78,0.00,,,0.00,VWS V14.00,2013-01-19 06:53:00,
2013-01-19 08:57:00,46.2,39.7,29.61,SE,135,2.6,2.6,78,0.00,,,0.00,VWS V14.00,2013-01-19 06:57:00,
2013-01-19 08:58:00,46.2,39.7,29.61,SSW,202,3.3,3.3,78,0.00,,,0.00,VWS V14.00,2013-01-19 06:58:00,
2013-01-19 09:02:00,46.2,39.4,29.61,South,180,3.5,3.5,77,0.00,,,0.00,VWS V14.00,2013-01-19 07:02:00,
2013-01-19 09:03:00,46.2,39.7,29.62,SW,225,8.5,8.5,78,0.00,,,0.00,VWS V14.00,2013-01-19 07:03:00,
2013-01-19 09:07:00,46.4,39.9,29.62,SW,225,5.8,5.8,78,0.00,,,0.00,VWS V14.00,2013-01-19 07:07:00,
2013-01-19 09:08:00,46.5,39.7,29.62,SW,225,5.8,5.8,77,0.00,,,0.00,VWS V14.00,2013-01-19 07:08:00,
2013-01-19 09:12:00,46.9,39.7,29.62,SSW,202,5.3,5.3,76,0.00,,,0.00,VWS V14.00,2013-01-19 07:12:00,
2013-01-19 09:13:00,47.1,39.9,29.62,SSW,202,2.4,5.3,76,0.00,,,0.00,VWS V14.00,2013-01-19 07:13:00,
2013-01-19 09:17:00,47.8,39.9,29.62,SE,135,0.0,1.5,74,0.00,,,0.00,VWS V14.00,2013-01-19 07:17:00,
2013-01-19 09:18:00,47.8,39.9,29.63,SE,135,0.0,1.5,74,0.00,,,0.00,VWS V14.00,2013-01-19 07:18:00,
2013-01-19 09:22:00,48.3,40.1,29.62,SSW,202,2.4,4.0,73,0.00,,,0.00,VWS V14.00,2013-01-19 07:22:00,
2013-01-19 09:23:00,48.3,40.1,29.62,SSW,202,2.4,4.0,73,0.00,,,0.00,VWS V14.00,2013-01-19 07:23:00,
2013-01-19 09:24:00,48.3,40.1,29.62,SSW,202,2.4,4.0,73,0.00,,,0.00,VWS V14.00,2013-01-19 07:24:00,
2013-01-19 09:27:00,48.7,39.7,29.62,SSW,202,10.5,10.5,71,0.00,,,0.00,VWS V14.00,2013-01-19 07:27:00,
2013-01-19 09:28:00,48.9,39.6,29.63,WSW,248,4.0,10.5,70,0.00,,,0.00,VWS V14.00,2013-01-19 07:28:00,
2013-01-19 09:32:00,49.1,39.4,29.63,SSW,202,5.8,5.8,69,0.00,,,0.00,VWS V14.00,2013-01-19 07:32:00,
2013-01-19 09:33:00,49.1,39.4,29.63,SSW,202,5.8,5.8,69,0.00,,,0.00,VWS V14.00,2013-01-19 07:33:00,
2013-01-19 09:34:00,49.1,39.4,29.63,SSW,202,5.8,5.8,69,0.00,,,0.00,VWS V14.00,2013-01-19 07:34:00,
2013-01-19 09:37:00,49.4,39.3,29.64,West,270,2.6,2.6,68,0.00,,,0.00,VWS V14.00,2013-01-19 07:37:00,
2013-01-19 09:38:00,49.4,39.3,29.64,West,270,2.6,2.6,68,0.00,,,0.00,VWS V14.00,2013-01-19 07:38:00,
2013-01-19 09:39:00,49.4,39.3,29.64,West,270,2.6,2.6,68,0.00,,,0.00,VWS V14.00,2013-01-19 07:39:00,
2013-01-19 09:42:00,49.6,39.5,29.64,SSE,158,2.9,2.9,68,0.00,,,0.00,VWS V14.00,2013-01-19 07:42:00,
2013-01-19 09:43:00,49.8,39.7,29.63,SSW,202,2.4,2.9,68,0.00,,,0.00,VWS V14.00,2013-01-19 07:43:00,
2013-01-19 09:44:00,49.8,39.7,29.63,SSW,202,2.4,2.9,68,0.00,,,0.00,VWS V14.00,2013-01-19 07:44:00,
2013-01-19 09:48:00,50.1,40.0,29.64,SSW,202,3.8,3.8,68,0.00,,,0.00,VWS V14.00,2013-01-19 07:48:00,
2013-01-19 09:49:00,50.1,40.0,29.64,SSW,202,3.8,3.8,68,0.00,,,0.00,VWS V14.00,2013-01-19 07:49:00,
2013-01-19 09:53:00,50.3,40.2,29.64,SE,135,0.0,0.0,68,0.00,,,0.00,VWS V14.00,2013-01-19 07:53:00,
2013-01-19 09:54:00,50.3,40.2,29.64,SE,135,0.0,0.0,68,0.00,,,0.00,VWS V14.00,2013-01-19 07:54:00,
2013-01-19 09:58:00,50.5,40.0,29.64,SE,135,0.0,8.9,67,0.00,,,0.00,VWS V14.00,2013-01-19 07:58:00,
2013-01-19 09:59:00,50.5,40.0,29.64,West,270,3.8,8.9,67,0.00,,,0.00,VWS V14.00,2013-01-19 07:59:00,
2013-01-19 10:03:00,50.7,40.2,29.64,SSW,202,2.4,3.5,67,0.00,,,0.00,VWS V14.00,2013-01-19 08:03:00,
2013-01-19 10:04:00,50.7,40.2,29.64,SSW,202,2.4,3.5,67,0.00,,,0.00,VWS V14.00,2013-01-19 08:04:00,
2013-01-19 10:08:00,50.7,40.2,29.64,South,180,3.5,3.5,67,0.00,,,0.00,VWS V14.00,2013-01-19 08:08:00,
2013-01-19 10:09:00,50.7,40.2,29.65,South,180,3.5,3.5,67,0.00,,,0.00,VWS V14.00,2013-01-19 08:09:00,
2013-01-19 10:13:00,51.0,40.4,29.65,South,180,3.5,4.2,67,0.00,,,0.00,VWS V14.00,2013-01-19 08:13:00,
2013-01-19 10:14:00,51.0,40.1,29.65,WSW,248,5.5,5.5,66,0.00,,,0.00,VWS V14.00,2013-01-19 08:14:00,
2013-01-19 10:18:00,51.4,40.4,29.65,South,180,3.8,3.8,66,0.00,,,0.00,VWS V14.00,2013-01-19 08:18:00,
2013-01-19 10:19:00,51.4,40.4,29.65,South,180,3.8,3.8,66,0.00,,,0.00,VWS V14.00,2013-01-19 08:19:00,
2013-01-19 10:23:00,51.6,39.8,29.65,WSW,248,4.4,5.1,64,0.00,,,0.00,VWS V14.00,2013-01-19 08:23:00,
2013-01-19 10:24:00,51.6,39.8,29.65,WSW,248,4.4,5.1,64,0.00,,,0.00,VWS V14.00,2013-01-19 08:24:00,
2013-01-19 10:28:00,52.1,40.3,29.66,SW,225,4.4,4.4,64,0.00,,,0.00,VWS V14.00,2013-01-19 08:28:00,
2013-01-19 10:29:00,52.1,40.3,29.66,SW,225,4.4,4.4,64,0.00,,,0.00,VWS V14.00,2013-01-19 08:29:00,
2013-01-19 10:33:00,52.5,40.3,29.66,SW,225,2.9,3.1,63,0.00,,,0.00,VWS V14.00,2013-01-19 08:33:00,
2013-01-19 10:34:00,52.7,40.5,29.66,WSW,248,2.9,3.1,63,0.00,,,0.00,VWS V14.00,2013-01-19 08:34:00,
2013-01-19 10:38:00,52.8,40.2,29.66,SW,225,7.6,7.6,62,0.00,,,0.00,VWS V14.00,2013-01-19 08:38:00,
2013-01-19 10:39:00,52.8,40.2,29.67,WSW,248,8.9,8.9,62,0.00,,,0.00,VWS V14.00,2013-01-19 08:39:00,
2013-01-19 10:43:00,52.7,40.1,29.67,West,270,8.0,8.9,62,0.00,,,0.00,VWS V14.00,2013-01-19 08:43:00,
2013-01-19 10:44:00,52.7,40.1,29.66,West,270,8.0,8.9,62,0.00,,,0.00,VWS V14.00,2013-01-19 08:44:00,
2013-01-19 10:45:00,52.7,40.1,29.66,West,270,8.0,8.9,62,0.00,,,0.00,VWS V14.00,2013-01-19 08:45:00,
2013-01-19 10:48:00,52.5,39.9,29.67,SW,225,8.9,9.1,62,0.00,,,0.00,VWS V14.00,2013-01-19 08:48:00,
2013-01-19 10:49:00,52.5,39.5,29.67,SW,225,4.2,9.1,61,0.00,,,0.00,VWS V14.00,2013-01-19 08:49:00,
2013-01-19 10:50:00,52.5,39.5,29.67,SW,225,4.2,9.1,61,0.00,,,0.00,VWS V14.00,2013-01-19 08:50:00,
2013-01-19 10:54:00,52.7,39.2,29.67,South,180,6.2,6.2,60,0.00,,,0.00,VWS V14.00,2013-01-19 08:54:00,
2013-01-19 10:55:00,52.8,39.3,29.67,SSW,202,8.2,8.2,60,0.00,,,0.00,VWS V14.00,2013-01-19 08:55:00,
2013-01-19 10:59:00,52.8,39.3,29.67,SW,225,5.5,13.1,60,0.00,,,0.00,VWS V14.00,2013-01-19 08:59:00,
2013-01-19 11:00:00,52.8,39.3,29.66,SW,225,5.5,13.1,60,0.00,,,0.00,VWS V14.00,2013-01-19 09:00:00,
2013-01-19 11:04:00,53.2,39.7,29.67,SSW,202,2.6,6.9,60,0.00,,,0.00,VWS V14.00,2013-01-19 09:04:00,
2013-01-19 11:05:00,53.2,39.7,29.67,SSW,202,6.0,6.9,60,0.00,,,0.00,VWS V14.00,2013-01-19 09:05:00,
2013-01-19 11:09:00,53.4,39.5,29.66,SSW,202,3.1,6.0,59,0.00,,,0.00,VWS V14.00,2013-01-19 09:09:00,
2013-01-19 11:10:00,53.4,39.9,29.66,SW,225,15.8,15.8,60,0.00,,,0.00,VWS V14.00,2013-01-19 09:10:00,
2013-01-19 11:14:00,53.7,40.2,29.66,SW,225,6.4,15.8,60,0.00,,,0.00,VWS V14.00,2013-01-19 09:14:00,
2013-01-19 11:15:00,53.7,40.2,29.67,SW,225,6.4,15.8,60,0.00,,,0.00,VWS V14.00,2013-01-19 09:15:00,
2013-01-19 11:19:00,53.7,39.7,29.66,WSW,248,6.2,6.9,59,0.00,,,0.00,VWS V14.00,2013-01-19 09:19:00,
2013-01-19 11:20:00,53.7,39.7,29.66,WSW,248,6.2,6.9,59,0.00,,,0.00,VWS V14.00,2013-01-19 09:20:00,
2013-01-19 11:24:00,53.9,39.9,29.66,WSW,248,2.2,17.6,59,0.00,,,0.00,VWS V14.00,2013-01-19 09:24:00,
2013-01-19 11:25:00,53.9,39.9,29.67,WSW,248,2.2,17.6,59,0.00,,,0.00,VWS V14.00,2013-01-19 09:25:00,
2013-01-19 11:29:00,53.9,39.5,29.67,SSW,202,13.4,13.4,58,0.00,,,0.00,VWS V14.00,2013-01-19 09:29:00,
2013-01-19 11:30:00,53.9,39.5,29.67,WSW,248,19.2,19.2,58,0.00,,,0.00,VWS V14.00,2013-01-19 09:30:00,
2013-01-19 11:34:00,53.9,39.0,29.67,SW,225,15.6,19.2,57,0.00,,,0.00,VWS V14.00,2013-01-19 09:34:00,
2013-01-19 11:35:00,53.9,39.0,29.67,SW,225,15.6,19.2,57,0.00,,,0.00,VWS V14.00,2013-01-19 09:35:00,
2013-01-19 11:39:00,53.9,39.0,29.67,WSW,248,10.0,15.6,57,0.00,,,0.00,VWS V14.00,2013-01-19 09:39:00,
2013-01-19 11:40:00,53.9,39.0,29.67,WSW,248,10.0,10.0,57,0.00,,,0.00,VWS V14.00,2013-01-19 09:40:00,
2013-01-19 11:44:00,53.7,39.3,29.66,SSW,202,14.0,14.0,58,0.00,,,0.00,VWS V14.00,2013-01-19 09:44:00,
2013-01-19 11:45:00,53.9,39.9,29.66,WSW,248,12.3,12.3,59,0.00,,,0.00,VWS V14.00,2013-01-19 09:45:00,
2013-01-19 11:49:00,54.1,39.7,29.66,SW,225,11.6,12.3,58,0.00,,,0.00,VWS V14.00,2013-01-19 09:49:00,
2013-01-19 11:50:00,54.1,39.7,29.66,SW,225,11.6,12.3,58,0.00,,,0.00,VWS V14.00,2013-01-19 09:50:00,
2013-01-19 11:54:00,54.1,39.2,29.66,WSW,248,8.7,11.6,57,0.00,,,0.00,VWS V14.00,2013-01-19 09:54:00,
2013-01-19 11:55:00,54.1,39.2,29.66,WSW,248,8.7,11.6,57,0.00,,,0.00,VWS V14.00,2013-01-19 09:55:00,
2013-01-19 11:59:00,54.3,39.0,29.66,WSW,248,20.1,20.1,56,0.00,,,0.00,VWS V14.00,2013-01-19 09:59:00,
2013-01-19 12:00:00,54.3,39.0,29.66,WSW,248,20.1,20.1,56,0.00,,,0.00,VWS V14.00,2013-01-19 10:00:00,
2013-01-19 12:04:00,54.3,39.4,29.65,WSW,248,4.4,12.7,57,0.00,,,0.00,VWS V14.00,2013-01-19 10:04:00,
2013-01-19 12:05:00,54.3,39.4,29.65,WSW,248,4.4,4.4,57,0.00,,,0.00,VWS V14.00,2013-01-19 10:05:00,
2013-01-19 12:06:00,54.3,39.4,29.65,WSW,248,4.4,4.4,57,0.00,,,0.00,VWS V14.00,2013-01-19 10:06:00,
2013-01-19 12:09:00,54.3,39.0,29.65,SSW,202,12.0,17.4,56,0.00,,,0.00,VWS V14.00,2013-01-19 10:09:00,
2013-01-19 12:10:00,54.3,39.0,29.65,SSW,202,12.0,17.4,56,0.00,,,0.00,VWS V14.00,2013-01-19 10:10:00,
2013-01-19 12:11:00,54.3,39.0,29.65,SSW,202,12.0,12.0,56,0.00,,,0.00,VWS V14.00,2013-01-19 10:11:00,
2013-01-19 12:15:00,54.3,39.0,29.65,SW,225,19.6,19.6,56,0.00,,,0.00,VWS V14.00,2013-01-19 10:15:00,
2013-01-19 12:16:00,54.3,39.0,29.65,WSW,248,7.8,7.8,56,0.00,,,0.00,VWS V14.00,2013-01-19 10:16:00,
2013-01-19 12:20:00,54.3,39.0,29.65,South,180,4.4,7.8,56,0.00,,,1.31,VWS V14.00,2013-01-19 10:20:00,
2013-01-19 12:21:00,54.3,39.0,29.65,South,180,4.4,4.4,56,0.00,,,0.00,VWS V14.00,2013-01-19 10:21:00,
2013-01-19 12:25:00,54.6,38.8,29.65,SSW,202,9.6,20.1,55,0.00,,,0.00,VWS V14.00,2013-01-19 10:25:00,
2013-01-19 12:26:00,54.6,38.8,29.65,SSW,202,9.6,9.6,55,0.00,,,0.00,VWS V14.00,2013-01-19 10:26:00,
2013-01-19 12:30:00,54.8,38.5,29.66,SSW,202,14.5,14.5,54,0.00,,,0.00,VWS V14.00,2013-01-19 10:30:00,
2013-01-19 12:31:00,55.0,38.7,29.65,SSW,202,11.1,11.1,54,0.00,,,0.00,VWS V14.00,2013-01-19 10:31:00,
2013-01-19 12:35:00,54.6,38.8,29.65,WSW,248,2.2,14.5,55,0.00,,,0.00,VWS V14.00,2013-01-19 10:35:00,
2013-01-19 12:36:00,54.6,38.8,29.65,SW,225,5.3,5.3,55,0.00,,,0.00,VWS V14.00,2013-01-19 10:36:00,
2013-01-19 12:37:00,54.6,38.8,29.65,SW,225,5.3,5.3,55,0.00,,,0.00,VWS V14.00,2013-01-19 10:37:00,
2013-01-19 12:40:00,54.6,38.8,29.65,SW,225,12.0,12.0,55,0.00,,,0.00,VWS V14.00,2013-01-19 10:40:00,
2013-01-19 12:41:00,54.6,38.8,29.65,SW,225,9.6,12.0,55,0.00,,,0.00,VWS V14.00,2013-01-19 10:41:00,
2013-01-19 12:42:00,54.6,38.8,29.65,SW,225,9.6,12.0,55,0.00,,,0.00,VWS V14.00,2013-01-19 10:42:00,
2013-01-19 12:45:00,54.6,39.2,29.65,SSW,202,4.0,12.0,56,0.00,,,0.00,VWS V14.00,2013-01-19 10:45:00,
2013-01-19 12:47:00,54.6,39.2,29.65,SW,225,17.2,17.2,56,0.00,,,0.00,VWS V14.00,2013-01-19 10:47:00,
2013-01-19 12:48:00,54.8,39.4,29.65,SSW,202,12.7,17.2,56,0.00,,,0.00,VWS V14.00,2013-01-19 10:48:00,
2013-01-19 12:50:00,54.8,39.4,29.65,SW,225,17.4,17.4,56,0.00,,,0.00,VWS V14.00,2013-01-19 10:50:00,
2013-01-19 12:51:00,54.8,39.4,29.65,SW,225,17.4,17.4,56,0.00,,,0.00,VWS V14.00,2013-01-19 10:51:00,
2013-01-19 12:52:00,54.6,38.8,29.65,ENE,68,4.4,17.4,55,0.00,,,0.00,VWS V14.00,2013-01-19 10:52:00,
2013-01-19 12:53:00,54.6,38.8,29.65,ENE,68,4.4,17.4,55,0.00,,,0.00,VWS V14.00,2013-01-19 10:53:00,
2013-01-19 12:55:00,54.6,38.8,29.65,WSW,248,11.6,11.6,55,0.00,,,0.00,VWS V14.00,2013-01-19 10:55:00,
2013-01-19 12:56:00,54.6,38.8,29.65,WSW,248,11.6,11.6,55,0.00,,,0.00,VWS V14.00,2013-01-19 10:56:00,
2013-01-19 12:57:00,54.8,39.0,29.65,South,180,5.1,11.6,55,0.00,,,0.00,VWS V14.00,2013-01-19 10:57:00,
2013-01-19 12:58:00,55.0,39.2,29.65,SW,225,12.3,12.3,55,0.00,,,0.00,VWS V14.00,2013-01-19 10:58:00,
2013-01-19 13:00:00,55.0,38.7,29.65,WSW,248,11.6,11.6,54,0.00,,,0.00,VWS V14.00,2013-01-19 11:00:00,
2013-01-19 13:01:00,55.0,38.7,29.65,WSW,248,11.6,11.6,54,0.00,,,0.00,VWS V14.00,2013-01-19 11:01:00,
2013-01-19 13:02:00,55.0,38.7,29.65,SSW,202,13.4,13.4,54,0.00,,,0.00,VWS V14.00,2013-01-19 11:02:00,
2013-01-19 13:03:00,55.0,38.7,29.65,SSW,202,13.4,13.4,54,0.00,,,0.00,VWS V14.00,2013-01-19 11:03:00,
2013-01-19 13:05:00,55.2,38.9,29.65,SSW,202,5.8,5.8,54,0.00,,,0.00,VWS V14.00,2013-01-19 11:05:00,
2013-01-19 13:06:00,55.2,38.9,29.65,SSW,202,5.8,5.8,54,0.00,,,0.00,VWS V14.00,2013-01-19 11:06:00,
2013-01-19 13:07:00,55.0,38.7,29.65,South,180,7.3,7.3,54,0.00,,,0.00,VWS V14.00,2013-01-19 11:07:00,
2013-01-19 13:08:00,55.0,38.7,29.65,South,180,7.3,7.3,54,0.00,,,0.00,VWS V14.00,2013-01-19 11:08:00,
2013-01-19 13:10:00,55.2,38.4,29.65,SSW,202,3.1,3.1,53,0.00,,,0.00,VWS V14.00,2013-01-19 11:10:00,
2013-01-19 13:11:00,55.2,38.4,29.65,SSW,202,3.1,3.1,53,0.00,,,0.00,VWS V14.00,2013-01-19 11:11:00,
2013-01-19 13:12:00,55.2,38.4,29.65,SSW,202,5.8,5.8,53,0.00,,,0.00,VWS V14.00,2013-01-19 11:12:00,
2013-01-19 13:13:00,55.2,38.4,29.65,South,180,9.6,9.6,53,0.00,,,0.00,VWS V14.00,2013-01-19 11:13:00,
2013-01-19 14:47:00,55.2,37.9,29.67,WSW,248,6.2,8.2,52,0.00,,,0.00,VWS V14.00,2013-01-19 12:47:00,
2013-01-19 14:48:00,55.2,37.9,29.67,WSW,248,6.2,8.2,52,0.00,,,0.00,VWS V14.00,2013-01-19 12:48:00,
2013-01-19 14:53:00,55.2,37.9,29.68,West,270,8.5,8.9,52,0.00,,,0.00,VWS V14.00,2013-01-19 12:53:00,
2013-01-19 14:58:00,55.4,37.6,29.68,WSW,248,5.3,5.3,51,0.00,,,0.00,VWS V14.00,2013-01-19 12:58:00,
2013-01-19 15:03:00,55.2,36.9,29.68,SSE,158,1.7,3.8,50,0.00,,,0.00,VWS V14.00,2013-01-19 13:03:00,
2013-01-19 15:08:00,55.2,36.9,29.68,SW,225,15.8,15.8,50,0.00,,,0.00,VWS V14.00,2013-01-19 13:08:00,
2013-01-19 15:13:00,55.2,36.4,29.68,SSW,202,9.1,9.1,49,0.00,,,0.00,VWS V14.00,2013-01-19 13:13:00,
2013-01-19 15:18:00,55.2,36.4,29.67,SSE,158,3.3,10.5,49,0.00,,,0.00,VWS V14.00,2013-01-19 13:18:00,
2013-01-19 15:23:00,55.2,36.9,29.68,South,180,0.8,4.6,50,0.00,,,0.00,VWS V14.00,2013-01-19 13:23:00,
2013-01-19 15:28:00,55.2,36.9,29.68,WNW,292,6.7,10.7,50,0.00,,,0.00,VWS V14.00,2013-01-19 13:28:00,
2013-01-19 15:33:00,55.2,36.9,29.69,WSW,248,16.3,16.3,50,0.00,,,0.00,VWS V14.00,2013-01-19 13:33:00,
2013-01-19 15:38:00,55.0,36.7,29.69,SSW,202,3.8,8.5,50,0.00,,,0.00,VWS V14.00,2013-01-19 13:38:00,
2013-01-19 15:43:00,55.0,37.7,29.69,SW,225,13.6,13.6,52,0.00,,,0.00,VWS V14.00,2013-01-19 13:43:00,
2013-01-19 15:48:00,55.0,37.7,29.69,West,270,7.3,7.3,52,0.00,,,0.00,VWS V14.00,2013-01-19 13:48:00,
2013-01-19 15:49:00,55.0,37.7,29.69,West,270,7.3,7.3,52,0.00,,,0.00,VWS V14.00,2013-01-19 13:49:00,
2013-01-19 15:53:00,54.8,37.5,29.70,WSW,248,2.9,7.6,52,0.00,,,0.00,VWS V14.00,2013-01-19 13:53:00,
2013-01-19 15:54:00,54.8,37.5,29.70,WSW,248,2.9,7.6,52,0.00,,,0.00,VWS V14.00,2013-01-19 13:54:00,
2013-01-19 15:58:00,54.6,37.3,29.70,South,180,6.7,7.6,52,0.00,,,0.00,VWS V14.00,2013-01-19 13:58:00,
2013-01-19 15:59:00,54.6,37.3,29.70,South,180,6.7,7.6,52,0.00,,,0.00,VWS V14.00,2013-01-19 13:59:00,
2013-01-19 16:03:00,54.3,37.1,29.70,West,270,4.4,4.4,52,0.00,,,0.00,VWS V14.00,2013-01-19 14:03:00,
2013-01-19 16:04:00,54.3,37.1,29.70,West,270,4.4,4.4,52,0.00,,,0.00,VWS V14.00,2013-01-19 14:04:00,
2013-01-19 16:09:00,54.3,37.5,29.70,SW,225,10.2,10.2,53,0.00,,,0.00,VWS V14.00,2013-01-19 14:09:00,
2013-01-19 16:14:00,54.3,38.0,29.71,NNE,22,2.2,3.1,54,0.00,,,0.00,VWS V14.00,2013-01-19 14:14:00,
2013-01-19 16:19:00,54.3,38.0,29.71,SSW,202,9.8,9.8,54,0.00,,,0.00,VWS V14.00,2013-01-19 14:19:00,
2013-01-19 16:24:00,54.1,38.3,29.71,WSW,248,6.9,6.9,55,0.00,,,0.00,VWS V14.00,2013-01-19 14:24:00,
2013-01-19 16:28:00,54.1,38.3,29.71,WSW,248,6.9,11.1,55,0.00,,,0.00,VWS V14.00,2013-01-19 14:28:00,
2013-01-19 16:29:00,54.1,38.3,29.71,WSW,248,6.9,11.1,55,0.00,,,0.00,VWS V14.00,2013-01-19 14:29:00,
2013-01-19 16:34:00,53.9,38.6,29.72,SW,225,6.9,8.9,56,0.00,,,0.00,VWS V14.00,2013-01-19 14:34:00,
2013-01-19 16:39:00,53.7,38.4,29.72,SW,225,3.8,4.9,56,0.00,,,0.00,VWS V14.00,2013-01-19 14:39:00,
2013-01-19 16:40:00,53.7,38.4,29.72,SW,225,3.8,4.9,56,0.00,,,0.00,VWS V14.00,2013-01-19 14:40:00,
2013-01-19 16:44:00,53.4,38.1,29.72,SSW,202,7.8,8.9,56,0.00,,,0.00,VWS V14.00,2013-01-19 14:44:00,
2013-01-19 16:45:00,53.4,38.1,29.72,SSW,202,7.8,8.9,56,0.00,,,0.00,VWS V14.00,2013-01-19 14:45:00,
2013-01-19 16:49:00,53.6,37.8,29.72,WSW,248,5.8,5.8,55,0.00,,,0.00,VWS V14.00,2013-01-19 14:49:00,
2013-01-19 16:50:00,53.4,37.2,29.72,SW,225,8.0,8.0,54,0.00,,,0.00,VWS V14.00,2013-01-19 14:50:00,
2013-01-19 16:54:00,53.4,37.2,29.72,SW,225,12.0,12.0,54,0.00,,,0.00,VWS V14.00,2013-01-19 14:54:00,
2013-01-19 16:55:00,53.4,37.2,29.72,SW,225,12.0,12.0,54,0.00,,,0.00,VWS V14.00,2013-01-19 14:55:00,
2013-01-19 16:59:00,53.4,36.7,29.72,SSW,202,6.7,6.7,53,0.00,,,0.00,VWS V14.00,2013-01-19 14:59:00,
2013-01-19 17:00:00,53.4,36.7,29.72,SSW,202,6.7,6.7,53,0.00,,,0.00,VWS V14.00,2013-01-19 15:00:00,
2013-01-19 17:04:00,53.2,36.5,29.72,SSW,202,4.0,4.6,53,0.00,,,0.00,VWS V14.00,2013-01-19 15:04:00,
2013-01-19 17:05:00,53.2,36.0,29.72,SW,225,3.3,4.6,52,0.00,,,0.00,VWS V14.00,2013-01-19 15:05:00,
2013-01-19 17:09:00,53.2,36.0,29.72,SSW,202,7.8,7.8,52,0.00,,,0.00,VWS V14.00,2013-01-19 15:09:00,
2013-01-19 17:10:00,53.2,36.0,29.72,SSW,202,7.8,7.8,52,0.00,,,0.00,VWS V14.00,2013-01-19 15:10:00,
2013-01-19 17:14:00,53.2,36.5,29.72,SW,225,3.5,5.1,53,0.00,,,0.00,VWS V14.00,2013-01-19 15:14:00,
2013-01-19 17:15:00,53.2,36.5,29.72,SW,225,3.5,5.1,53,0.00,,,0.00,VWS V14.00,2013-01-19 15:15:00,
2013-01-19 17:19:00,52.8,36.2,29.73,SW,225,9.6,11.8,53,0.00,,,0.00,VWS V14.00,2013-01-19 15:19:00,
2013-01-19 17:20:00,52.8,36.2,29.73,SW,225,9.6,11.8,53,0.00,,,0.00,VWS V14.00,2013-01-19 15:20:00,
2013-01-19 17:24:00,52.8,36.2,29.73,SW,225,7.3,9.6,53,0.00,,,0.00,VWS V14.00,2013-01-19 15:24:00,
2013-01-19 17:25:00,52.8,36.2,29.73,SW,225,7.3,9.6,53,0.00,,,0.00,VWS V14.00,2013-01-19 15:25:00,
2013-01-19 17:29:00,52.8,36.6,29.73,WNW,292,1.3,1.3,54,0.00,,,0.00,VWS V14.00,2013-01-19 15:29:00,
2013-01-19 17:30:00,52.7,36.5,29.73,WSW,248,3.8,3.8,54,0.00,,,0.00,VWS V14.00,2013-01-19 15:30:00,
2013-01-19 17:31:00,52.7,36.5,29.73,WSW,248,3.8,3.8,54,0.00,,,0.00,VWS V14.00,2013-01-19 15:31:00,
2013-01-19 17:34:00,52.5,36.3,29.73,SW,225,6.7,6.7,54,0.00,,,0.00,VWS V14.00,2013-01-19 15:34:00,
2013-01-19 17:35:00,52.5,36.3,29.73,SW,225,6.7,6.7,54,0.00,,,0.00,VWS V14.00,2013-01-19 15:35:00,
2013-01-19 17:36:00,52.7,37.0,29.73,WNW,292,0.0,6.7,55,0.00,,,0.00,VWS V14.00,2013-01-19 15:36:00,
2013-01-19 17:39:00,52.5,36.8,29.73,SW,225,2.4,6.7,55,0.00,,,0.00,VWS V14.00,2013-01-19 15:39:00,
2013-01-19 17:40:00,52.5,36.8,29.73,SSW,202,2.0,2.0,55,0.00,,,0.00,VWS V14.00,2013-01-19 15:40:00,
2013-01-19 17:41:00,52.5,36.8,29.74,SSW,202,2.0,2.0,55,0.00,,,0.00,VWS V14.00,2013-01-19 15:41:00,
2013-01-19 17:44:00,52.5,36.8,29.74,SSW,202,4.4,4.4,55,0.00,,,0.00,VWS V14.00,2013-01-19 15:44:00,
2013-01-19 17:45:00,52.3,36.6,29.74,SW,225,2.0,2.0,55,0.00,,,0.00,VWS V14.00,2013-01-19 15:45:00,
2013-01-19 17:46:00,52.3,36.6,29.74,SW,225,2.0,2.0,55,0.00,,,0.00,VWS V14.00,2013-01-19 15:46:00,
2013-01-19 17:49:00,52.3,36.6,29.74,South,180,0.8,2.9,55,0.00,,,0.00,VWS V14.00,2013-01-19 15:49:00,
2013-01-19 17:50:00,52.3,36.6,29.74,South,180,0.8,0.8,55,0.00,,,0.00,VWS V14.00,2013-01-19 15:50:00,
2013-01-19 17:52:00,52.3,36.6,29.74,SSW,202,5.5,5.5,55,0.00,,,0.00,VWS V14.00,2013-01-19 15:52:00,
2013-01-19 17:54:00,52.3,36.6,29.74,SSW,202,5.1,5.5,55,0.00,,,0.00,VWS V14.00,2013-01-19 15:54:00,
2013-01-19 17:55:00,52.1,36.4,29.74,WSW,248,1.3,1.3,55,0.00,,,0.00,VWS V14.00,2013-01-19 15:55:00,
2013-01-19 17:57:00,52.1,36.4,29.74,WSW,248,1.3,1.3,55,0.00,,,0.00,VWS V14.00,2013-01-19 15:57:00,
2013-01-19 17:59:00,52.1,36.9,29.75,ENE,68,0.0,1.3,56,0.00,,,0.00,VWS V14.00,2013-01-19 15:59:00,
2013-01-19 18:00:00,52.1,36.9,29.75,SW,225,1.5,1.5,56,0.00,,,0.00,VWS V14.00,2013-01-19 16:00:00,
2013-01-19 18:01:00,52.1,36.9,29.75,SW,225,1.5,1.5,56,0.00,,,0.00,VWS V14.00,2013-01-19 16:01:00,
2013-01-19 18:02:00,52.1,36.9,29.74,SW,225,1.5,1.5,56,0.00,,,0.00,VWS V14.00,2013-01-19 16:02:00,
2013-01-19 18:04:00,51.9,36.7,29.74,SSW,202,3.5,3.5,56,0.00,,,0.00,VWS V14.00,2013-01-19 16:04:00,
2013-01-19 18:05:00,51.9,36.7,29.74,SSW,202,3.5,3.5,56,0.00,,,0.00,VWS V14.00,2013-01-19 16:05:00,
2013-01-19 18:06:00,51.9,36.7,29.74,SSW,202,3.5,3.5,56,0.00,,,0.00,VWS V14.00,2013-01-19 16:06:00,
2013-01-19 18:07:00,51.9,36.7,29.74,SW,225,6.0,6.0,56,0.00,,,0.00,VWS V14.00,2013-01-19 16:07:00,
2013-01-19 18:10:00,51.8,36.6,29.74,WSW,248,4.6,6.0,56,0.00,,,0.00,VWS V14.00,2013-01-19 16:10:00,
2013-01-19 18:11:00,51.8,36.6,29.74,ENE,68,1.7,1.7,56,0.00,,,0.00,VWS V14.00,2013-01-19 16:11:00,
2013-01-19 18:12:00,51.6,36.4,29.75,SW,225,4.6,4.6,56,0.00,,,0.00,VWS V14.00,2013-01-19 16:12:00,
2013-01-19 18:15:00,51.6,36.4,29.75,SW,225,4.6,4.6,56,0.00,,,0.00,VWS V14.00,2013-01-19 16:15:00,
2013-01-19 18:16:00,51.8,36.6,29.75,SSW,202,4.6,4.6,56,0.00,,,0.00,VWS V14.00,2013-01-19 16:16:00,
2013-01-19 18:17:00,51.6,36.4,29.75,WSW,248,3.5,4.6,56,0.00,,,0.00,VWS V14.00,2013-01-19 16:17:00,
2013-01-19 18:20:00,51.6,36.4,29.75,SSW,202,1.3,4.6,56,0.00,,,0.00,VWS V14.00,2013-01-19 16:20:00,
2013-01-19 18:21:00,51.6,36.4,29.75,SW,225,2.4,2.4,56,0.00,,,0.00,VWS V14.00,2013-01-19 16:21:00,
2013-01-19 18:23:00,51.6,36.4,29.75,SW,225,2.4,2.4,56,0.00,,,0.00,VWS V14.00,2013-01-19 16:23:00,
2013-01-19 18:25:00,51.6,36.4,29.75,WSW,248,4.2,4.2,56,0.00,,,0.00,VWS V14.00,2013-01-19 16:25:00,
2013-01-19 18:27:00,51.6,36.4,29.75,SW,225,4.9,4.9,56,0.00,,,0.00,VWS V14.00,2013-01-19 16:27:00,
2013-01-19 18:28:00,51.6,36.4,29.75,SSE,158,2.0,4.9,56,0.00,,,0.00,VWS V14.00,2013-01-19 16:28:00,
2013-01-19 18:30:00,51.6,36.4,29.75,SSE,158,2.0,4.9,56,0.00,,,0.00,VWS V14.00,2013-01-19 16:30:00,
2013-01-19 18:32:00,51.6,36.4,29.75,WSW,248,4.2,4.9,56,0.00,,,0.00,VWS V14.00,2013-01-19 16:32:00,
2013-01-19 18:33:00,51.6,36.4,29.75,WSW,248,4.2,4.9,56,0.00,,,0.00,VWS V14.00,2013-01-19 16:33:00,
2013-01-19 18:35:00,51.6,36.4,29.76,WSW,248,2.2,4.9,56,0.00,,,0.00,VWS V14.00,2013-01-19 16:35:00,
2013-01-19 18:37:00,51.6,36.4,29.75,SW,225,0.8,2.2,56,0.00,,,0.00,VWS V14.00,2013-01-19 16:37:00,
2013-01-19 18:38:00,51.6,36.4,29.75,NNW,338,0.6,2.2,56,0.00,,,0.00,VWS V14.00,2013-01-19 16:38:00,
2013-01-19 18:40:00,51.6,36.4,29.75,SW,225,1.3,1.3,56,0.00,,,0.00,VWS V14.00,2013-01-19 16:40:00,
2013-01-19 18:42:00,51.6,36.4,29.76,NNW,338,0.0,1.3,56,0.00,,,0.00,VWS V14.00,2013-01-19 16:42:00,
2013-01-19 18:43:00,51.6,36.4,29.76,NNW,338,0.0,1.3,56,0.00,,,0.00,VWS V14.00,2013-01-19 16:43:00,
2013-01-19 18:45:00,51.6,36.9,29.76,SW,225,1.7,1.7,57,0.00,,,0.00,VWS V14.00,2013-01-19 16:45:00,
2013-01-19 18:47:00,51.6,36.9,29.76,North,0,1.3,1.7,57,0.00,,,0.00,VWS V14.00,2013-01-19 16:47:00,
2013-01-19 18:48:00,51.6,36.9,29.76,North,0,1.3,1.7,57,0.00,,,0.00,VWS V14.00,2013-01-19 16:48:00,
2013-01-19 18:50:00,51.6,36.9,29.76,ESE,112,0.0,0.0,57,0.00,,,0.00,VWS V14.00,2013-01-19 16:50:00,
2013-01-19 18:52:00,51.6,36.9,29.76,ESE,112,0.0,0.0,57,0.00,,,0.00,VWS V14.00,2013-01-19 16:52:00,
2013-01-19 18:53:00,51.6,36.9,29.76,SW,225,2.0,2.0,57,0.00,,,0.00,VWS V14.00,2013-01-19 16:53:00,
2013-01-19 18:55:00,51.6,36.9,29.76,East,90,0.0,0.0,57,0.00,,,0.00,VWS V14.00,2013-01-19 16:55:00,
2013-01-19 18:57:00,51.6,36.9,29.76,SW,225,0.0,0.0,57,0.00,,,0.00,VWS V14.00,2013-01-19 16:57:00,
2013-01-19 18:58:00,51.6,36.9,29.76,SW,225,0.0,0.0,57,0.00,,,0.00,VWS V14.00,2013-01-19 16:58:00,
2013-01-19 19:00:00,51.6,36.9,29.76,NW,315,0.0,0.0,57,0.00,,,0.00,VWS V14.00,2013-01-19 17:00:00,
2013-01-19 19:03:00,51.4,36.7,29.76,NW,315,1.1,1.1,57,0.00,,,0.00,VWS V14.00,2013-01-19 17:03:00,
2013-01-19 19:04:00,51.4,36.7,29.76,NW,315,1.1,1.1,57,0.00,,,0.00,VWS V14.00,2013-01-19 17:04:00,
2013-01-19 19:05:00,51.6,37.3,29.76,WNW,292,0.0,0.0,58,0.00,,,0.00,VWS V14.00,2013-01-19 17:05:00,
2013-01-19 19:06:00,51.6,37.3,29.76,WNW,292,0.0,0.0,58,0.00,,,0.00,VWS V14.00,2013-01-19 17:06:00,
2013-01-19 19:08:00,51.4,37.1,29.76,WNW,292,0.0,0.0,58,0.00,,,0.00,VWS V14.00,2013-01-19 17:08:00,
2013-01-19 19:11:00,51.4,37.1,29.76,WSW,248,0.6,0.6,58,0.00,,,0.00,VWS V14.00,2013-01-19 17:11:00,
2013-01-19 19:13:00,51.4,37.1,29.76,West,270,1.1,1.1,58,0.00,,,0.00,VWS V14.00,2013-01-19 17:13:00,
2013-01-19 19:18:00,51.2,37.0,29.77,NW,315,0.0,3.1,58,0.00,,,0.00,VWS V14.00,2013-01-19 17:18:00,
2013-01-19 19:23:00,51.0,36.8,29.76,ENE,68,0.0,0.0,58,0.00,,,0.00,VWS V14.00,2013-01-19 17:23:00,
2013-01-19 19:28:00,50.9,36.7,29.77,SE,135,0.0,0.0,58,0.00,,,0.00,VWS V14.00,2013-01-19 17:28:00,
2013-01-19 19:33:00,50.9,36.7,29.77,East,90,0.0,2.4,58,0.00,,,0.00,VWS V14.00,2013-01-19 17:33:00,
2013-01-19 19:34:00,50.9,36.7,29.77,East,90,0.0,2.4,58,0.00,,,0.00,VWS V14.00,2013-01-19 17:34:00,
2013-01-19 19:38:00,50.7,36.5,29.77,NE,45,0.0,0.0,58,0.00,,,0.00,VWS V14.00,2013-01-19 17:38:00,
2013-01-19 19:43:00,50.7,36.9,29.77,North,0,0.0,0.0,59,0.00,,,0.00,VWS V14.00,2013-01-19 17:43:00,
2013-01-19 19:44:00,50.7,36.9,29.77,North,0,0.0,0.0,59,0.00,,,0.00,VWS V14.00,2013-01-19 17:44:00,
2013-01-19 19:48:00,50.7,36.9,29.77,WNW,292,0.0,0.0,59,0.00,,,0.00,VWS V14.00,2013-01-19 17:48:00,
2013-01-19 19:49:00,50.7,36.9,29.77,WNW,292,0.0,0.0,59,0.00,,,0.00,VWS V14.00,2013-01-19 17:49:00,
2013-01-19 19:53:00,50.7,36.9,29.78,WSW,248,0.0,0.8,59,0.00,,,0.00,VWS V14.00,2013-01-19 17:53:00,
2013-01-19 19:54:00,50.7,36.9,29.77,WSW,248,0.0,0.8,59,0.00,,,0.00,VWS V14.00,2013-01-19 17:54:00,
2013-01-19 19:58:00,50.7,37.3,29.77,ESE,112,0.0,1.3,60,0.00,,,0.00,VWS V14.00,2013-01-19 17:58:00,
2013-01-19 19:59:00,50.7,37.3,29.77,ESE,112,0.0,1.3,60,0.00,,,0.00,VWS V14.00,2013-01-19 17:59:00,
2013-01-19 20:03:00,50.5,37.2,29.77,SE,135,0.0,2.0,60,0.00,,,0.00,VWS V14.00,2013-01-19 18:03:00,
2013-01-19 20:04:00,50.5,37.2,29.78,SSE,158,0.8,2.0,60,0.00,,,0.00,VWS V14.00,2013-01-19 18:04:00,
2013-01-19 20:09:00,50.5,37.2,29.77,ESE,112,1.1,1.1,60,0.00,,,0.00,VWS V14.00,2013-01-19 18:09:00,
2013-01-19 20:14:00,50.5,37.2,29.78,SSE,158,0.0,0.6,60,0.00,,,0.00,VWS V14.00,2013-01-19 18:14:00,
2013-01-19 20:19:00,50.3,37.0,29.77,West,270,0.0,0.0,60,0.00,,,0.00,VWS V14.00,2013-01-19 18:19:00,
2013-01-19 20:20:00,50.3,37.0,29.78,West,270,0.0,0.0,60,0.00,,,0.00,VWS V14.00,2013-01-19 18:20:00,
2013-01-19 20:25:00,50.3,37.0,29.78,WSW,248,0.0,0.0,60,0.00,,,0.00,VWS V14.00,2013-01-19 18:25:00,
2013-01-19 20:30:00,50.3,37.4,29.78,SW,225,0.6,1.1,61,0.00,,,0.00,VWS V14.00,2013-01-19 18:30:00,
2013-01-19 20:35:00,50.3,37.4,29.78,West,270,0.8,0.8,61,0.00,,,0.00,VWS V14.00,2013-01-19 18:35:00,
2013-01-19 20:40:00,50.3,37.4,29.78,SSE,158,0.0,0.0,61,0.00,,,0.00,VWS V14.00,2013-01-19 18:40:00,
2013-01-19 20:45:00,50.3,37.4,29.78,SE,135,0.0,2.4,61,0.00,,,0.00,VWS V14.00,2013-01-19 18:45:00,
2013-01-19 20:46:00,50.3,37.4,29.78,SE,135,0.0,0.0,61,0.00,,,0.00,VWS V14.00,2013-01-19 18:46:00,
2013-01-19 20:50:00,50.5,37.6,29.78,South,180,0.0,0.0,61,0.00,,,0.00,VWS V14.00,2013-01-19 18:50:00,
2013-01-19 20:51:00,50.5,37.6,29.78,South,180,0.0,0.0,61,0.00,,,0.00,VWS V14.00,2013-01-19 18:51:00,
2013-01-19 20:55:00,50.3,37.4,29.79,WNW,292,0.0,0.0,61,0.00,,,0.00,VWS V14.00,2013-01-19 18:55:00,
2013-01-19 20:56:00,50.3,37.4,29.79,WNW,292,0.0,0.0,61,0.00,,,0.00,VWS V14.00,2013-01-19 18:56:00,
2013-01-19 21:01:00,50.3,37.4,29.79,SSW,202,0.0,0.0,61,0.00,,,0.00,VWS V14.00,2013-01-19 19:01:00,
2013-01-19 21:02:00,50.3,37.4,29.79,SSW,202,2.4,2.4,61,0.00,,,0.00,VWS V14.00,2013-01-19 19:02:00,
2013-01-19 21:06:00,50.3,37.4,29.79,South,180,0.0,0.0,61,0.00,,,0.00,VWS V14.00,2013-01-19 19:06:00,
2013-01-19 21:07:00,50.3,37.4,29.79,South,180,0.0,0.0,61,0.00,,,0.00,VWS V14.00,2013-01-19 19:07:00,
2013-01-19 21:12:00,50.1,37.6,29.79,SW,225,3.8,3.8,62,0.00,,,0.00,VWS V14.00,2013-01-19 19:12:00,
2013-01-19 21:13:00,50.1,37.6,29.79,SW,225,3.8,3.8,62,0.00,,,0.00,VWS V14.00,2013-01-19 19:13:00,
2013-01-19 21:17:00,50.1,37.6,29.79,SSE,158,5.3,5.3,62,0.00,,,0.00,VWS V14.00,2013-01-19 19:17:00,
2013-01-19 21:18:00,50.1,37.6,29.79,SSE,158,5.3,5.3,62,0.00,,,0.00,VWS V14.00,2013-01-19 19:18:00,
2013-01-19 21:22:00,50.1,37.6,29.79,SW,225,0.8,6.2,62,0.00,,,0.00,VWS V14.00,2013-01-19 19:22:00,
2013-01-19 21:23:00,50.1,37.6,29.79,SW,225,2.4,6.2,62,0.00,,,0.00,VWS V14.00,2013-01-19 19:23:00,
2013-01-19 21:27:00,50.1,37.6,29.79,ENE,68,0.0,3.3,62,0.00,,,0.00,VWS V14.00,2013-01-19 19:27:00,
2013-01-19 21:28:00,50.1,37.6,29.79,ENE,68,0.0,3.3,62,0.00,,,0.00,VWS V14.00,2013-01-19 19:28:00,
2013-01-19 21:33:00,50.1,37.6,29.80,SW,225,0.0,0.0,62,0.00,,,0.00,VWS V14.00,2013-01-19 19:33:00,
2013-01-19 21:38:00,50.3,38.2,29.80,SSW,202,2.2,2.2,63,0.00,,,0.00,VWS V14.00,2013-01-19 19:38:00,
2013-01-19 21:39:00,50.3,38.2,29.80,SSW,202,2.2,2.2,63,0.00,,,0.00,VWS V14.00,2013-01-19 19:39:00,
2013-01-19 21:43:00,50.1,38.0,29.80,SW,225,0.0,3.1,63,0.00,,,0.00,VWS V14.00,2013-01-19 19:43:00,
2013-01-19 21:49:00,50.1,38.0,29.80,WSW,248,1.3,1.3,63,0.00,,,0.00,VWS V14.00,2013-01-19 19:49:00,
2013-01-19 21:54:00,50.1,38.0,29.80,WSW,248,5.1,7.6,63,0.00,,,0.00,VWS V14.00,2013-01-19 19:54:00,
2013-01-19 21:59:00,50.1,38.0,29.80,West,270,0.0,3.5,63,0.00,,,0.00,VWS V14.00,2013-01-19 19:59:00,
2013-01-19 22:04:00,50.1,38.4,29.80,South,180,0.8,4.6,64,0.00,,,0.00,VWS V14.00,2013-01-19 20:04:00,
2013-01-19 22:05:00,50.1,38.4,29.80,South,180,0.8,4.6,64,0.00,,,0.00,VWS V14.00,2013-01-19 20:05:00,
2013-01-19 22:09:00,50.1,38.4,29.80,South,180,1.1,4.6,64,0.00,,,0.00,VWS V14.00,2013-01-19 20:09:00,
2013-01-19 22:10:00,50.1,38.4,29.81,WSW,248,0.0,4.6,64,0.00,,,0.00,VWS V14.00,2013-01-19 20:10:00,
2013-01-19 22:14:00,50.1,38.4,29.81,ENE,68,0.0,0.0,64,0.00,,,0.00,VWS V14.00,2013-01-19 20:14:00,
2013-01-19 22:15:00,50.1,38.4,29.81,ESE,112,0.0,0.0,64,0.00,,,0.00,VWS V14.00,2013-01-19 20:15:00,
2013-01-19 22:19:00,50.0,38.7,29.81,West,270,0.8,4.9,65,0.00,,,0.00,VWS V14.00,2013-01-19 20:19:00,
2013-01-19 22:20:00,50.0,38.7,29.81,West,270,0.8,0.8,65,0.00,,,0.00,VWS V14.00,2013-01-19 20:20:00,
2013-01-19 22:24:00,49.8,38.5,29.80,SW,225,2.2,2.2,65,0.00,,,0.00,VWS V14.00,2013-01-19 20:24:00,
2013-01-19 22:25:00,49.8,38.5,29.81,SSW,202,3.5,3.5,65,0.00,,,0.00,VWS V14.00,2013-01-19 20:25:00,
2013-01-19 22:30:00,49.8,38.5,29.80,SW,225,3.1,3.5,65,0.00,,,0.00,VWS V14.00,2013-01-19 20:30:00,
2013-01-19 22:35:00,49.8,38.5,29.81,SSW,202,3.1,3.1,65,0.00,,,0.00,VWS V14.00,2013-01-19 20:35:00,
2013-01-19 22:36:00,49.8,38.5,29.81,SSW,202,3.1,3.1,65,0.00,,,0.00,VWS V14.00,2013-01-19 20:36:00,
2013-01-19 22:40:00,49.8,38.5,29.81,South,180,5.8,5.8,65,0.00,,,0.00,VWS V14.00,2013-01-19 20:40:00,
2013-01-19 22:41:00,49.6,38.3,29.81,SSW,202,1.3,1.3,65,0.00,,,0.00,VWS V14.00,2013-01-19 20:41:00,
2013-01-19 22:46:00,49.6,38.3,29.81,ESE,112,0.8,0.8,65,0.00,,,0.00,VWS V14.00,2013-01-19 20:46:00,
2013-01-19 22:51:00,49.6,38.7,29.81,SSW,202,0.8,0.8,66,0.00,,,0.00,VWS V14.00,2013-01-19 20:51:00,
2013-01-19 22:56:00,49.6,38.7,29.81,SE,135,0.8,0.8,66,0.00,,,0.00,VWS V14.00,2013-01-19 20:56:00,
2013-01-19 22:57:00,49.6,38.7,29.81,South,180,2.4,2.4,66,0.00,,,0.00,VWS V14.00,2013-01-19 20:57:00,
2013-01-19 23:01:00,49.6,38.7,29.81,WSW,248,0.0,0.0,66,0.00,,,0.00,VWS V14.00,2013-01-19 21:01:00,
2013-01-19 23:02:00,49.4,38.9,29.81,South,180,0.0,0.0,67,0.00,,,0.00,VWS V14.00,2013-01-19 21:02:00,
2013-01-19 23:07:00,49.6,39.1,29.82,South,180,4.4,4.4,67,0.00,,,0.00,VWS V14.00,2013-01-19 21:07:00,
2013-01-19 23:12:00,49.6,39.5,29.82,SW,225,4.6,4.6,68,0.00,,,0.00,VWS V14.00,2013-01-19 21:12:00,
2013-01-19 23:13:00,49.6,39.5,29.82,SW,225,4.6,4.6,68,0.00,,,0.00,VWS V14.00,2013-01-19 21:13:00,
2013-01-19 23:17:00,49.6,39.5,29.82,SW,225,2.0,2.0,68,0.00,,,0.00,VWS V14.00,2013-01-19 21:17:00,
2013-01-19 23:18:00,49.6,39.5,29.82,SW,225,2.0,2.0,68,0.00,,,0.00,VWS V14.00,2013-01-19 21:18:00,
2013-01-19 23:22:00,49.6,39.5,29.82,SSW,202,0.8,0.8,68,0.00,,,0.00,VWS V14.00,2013-01-19 21:22:00,
2013-01-19 23:24:00,49.6,39.5,29.82,South,180,0.0,0.8,68,0.00,,,0.00,VWS V14.00,2013-01-19 21:24:00,
2013-01-19 23:29:00,49.6,39.5,29.82,ENE,68,0.8,0.8,68,0.00,,,0.00,VWS V14.00,2013-01-19 21:29:00,
2013-01-19 23:34:00,49.6,39.5,29.82,SE,135,0.0,1.3,68,0.00,,,0.00,VWS V14.00,2013-01-19 21:34:00,
2013-01-19 23:39:00,49.4,39.3,29.82,NNW,338,0.0,0.0,68,0.00,,,0.00,VWS V14.00,2013-01-19 21:39:00,
2013-01-19 23:40:00,49.4,39.3,29.82,NNW,338,0.0,0.0,68,0.00,,,0.00,VWS V14.00,2013-01-19 21:40:00,
2013-01-19 23:44:00,49.2,39.1,29.82,NNW,338,0.0,0.0,68,0.00,,,0.00,VWS V14.00,2013-01-19 21:44:00,
2013-01-19 23:45:00,49.2,39.1,29.82,SSW,202,3.3,3.3,68,0.00,,,0.00,VWS V14.00,2013-01-19 21:45:00,
2013-01-19 23:50:00,49.2,39.5,29.82,WSW,248,3.5,3.5,69,0.00,,,0.00,VWS V14.00,2013-01-19 21:50:00,
2013-01-19 23:55:00,49.2,39.5,29.82,SSW,202,0.8,0.8,69,0.00,,,0.00,VWS V14.00,2013-01-19 21:55:00,